Regional Weather Roundup
Issued by NWS Little Rock, AR

Home | Current Version | Previous Version | Graphics & Text | Print | Product List | Glossary On
Versions: 1 2 3 4 5 6 7 8 9 10 11 12 13 14 15 16 17 18 19 20 21 22 23 24 25 26 27
000
ASUS44 KLZK 200105
RWRLZK

WEATHER ROUNDUP FOR ARKANSAS
NATIONAL WEATHER SERVICE LITTLE ROCK AR
800 PM CDT SAT APR 19 2014

NOTE: "FAIR" INDICATES FEW OR NO CLOUDS BELOW 12,000 FEET WITH NO
SIGNIFICANT WEATHER AND/OR OBSTRUCTIONS TO VISIBILITY.

ARZ001-003-010-029-200200-
NORTHWEST ARKANSAS

CITY           SKY/WX    TMP DP  RH WIND       PRES   REMARKS
FAYETTEVILLE   CLEAR     65  48  54 SE3       30.13R
FORT SMITH     PTCLDY    72  52  49 NE5       30.09S
HARRISON       CLEAR     68  46  45 E3        30.13S
BENTONVILLE    CLEAR     70  45  40 S6        30.13S
ROGERS         CLEAR     68  46  45 S7        30.13S
SILOAM SPGS    CLEAR     66  45  45 S6        30.13S
HIGHFILL       CLEAR     66  47  50 S6        30.11S
SPRINGDALE     CLEAR     70  48  46 S5        30.15R
$$

ARZ004-005-016-200200-
NORTH CENTRAL ARKANSAS

CITY           SKY/WX    TMP DP  RH WIND       PRES   REMARKS
BATESVILLE     CLEAR     70  45  40 SE5       30.15R
FLIPPIN        CLEAR     72  43  35 SE3       30.14R
MTN HOME       CLEAR     70  42  36 SE3       30.13R
$$

ARZ040-041-200200-
WEST CENTRAL ARKANSAS

CITY           SKY/WX    TMP DP  RH WIND       PRES   REMARKS
MENA           PTCLDY    70  50  49 CALM      30.13S
MOUNT IDA      CLEAR     67  53  61 CALM      30.11S
$$

ARZ009-017-025-026-028-200200-
NORTHEAST ARKANSAS

CITY           SKY/WX    TMP DP  RH WIND       PRES   REMARKS
CORNING        FAIR      66  48  52 E3        30.16S
JONESBORO      CLEAR     63  46  54 N3        30.15R
NEWPORT        CLEAR     70  49  47 E12       30.16R
WALNUT RIDGE   CLEAR     68  48  49 E5        30.16R
BLYTHEVILLE    PTCLDY    67  49  52 NE3       30.15S
$$

ARZ022-023-033-042-044-200200-
CENTRAL ARKANSAS

CITY           SKY/WX    TMP DP  RH WIND       PRES   REMARKS
LITTLE ROCK    PTCLDY    69  49  48 E6        30.14R
N LITTLE ROCK  PTCLDY    70  51  50 E6        30.14R
JACKSONVILLE   CLEAR     67  53  59 SE3       30.14R
SEARCY         CLEAR     70  49  47 N5        30.16R
HOT SPRINGS    CLEAR     70  51  51 CALM      30.13S
RUSSELLVILLE   CLEAR     69  52  54 CALM      30.11S
CLINTON        FAIR      66  55  68 CALM      30.15R
$$

ARZ036-200200-
EAST ARKANSAS

CITY           SKY/WX    TMP DP  RH WIND       PRES   REMARKS
WEST MEMPHIS   CLEAR     69  45  41 N5        30.13R
$$

ARZ050-053-066-070-073-200200-
SOUTHWEST ARKANSAS

CITY           SKY/WX    TMP DP  RH WIND       PRES   REMARKS
ARKADELPHIA    FAIR      68  63  84 CALM      30.13R
CAMDEN         CLEAR     66  54  63 MISG      30.12S
TEXARKANA      CLEAR     66  53  63 SE5       30.11F
EL DORADO      CLEAR     65  57  75 CALM      30.12S
DE QUEEN       PTCLDY    65  56  72 CALM      30.09F
$$

ARZ056-057-069-200200-
SOUTHEAST ARKANSAS

CITY           SKY/WX    TMP DP  RH WIND       PRES   REMARKS
PINE BLUFF     CLEAR     70  53  54 NE6       30.14R
STUTTGART      CLEAR     72  48  43 E3        30.15S
MONTICELLO     CLEAR     67  53  61 CALM      30.13R

$$





USA.gov is the U.S. government's official web portal to all federal, state and local government web resources and services.